Showing default

COSMOS 2548, 47230

Orbit data source: Space-Track

COSMOS 2548, 47230 is a payload satellite owned by MO RF (CIS) in LEO that was launched on Thu, 03 Dec 2020 UTC via a SOYUZ-2-1B launch vehicle from the Plesetsk Missile And Space Complex (PKMTR). Payload-class satellites include a variety of spacecraft equipped with specific instruments for various scientific and technological missions. These include communications satellites like Starlink; space stations such as the ISS; scientific satellites like the Hubble; Earth observation satellites from companies like Planet Labs, Umbra, and HawkEye 360; GPS; miniature CubeSats for education and research; and military/defense satellites.

Loading next visibility...
Identifier
47230, 2020-091D
Orbit
LEO
Country
Flag of CISCIS
Related business
Manufacturer
TsNIIKhM
Mission
Operational Defense Technology
Bus & Motor
CUBESAT 3U, Unknown motor
Mass
4 kg wet, 4 kg dry
Launch date (UTC)
2020-12-03 (6 years ago)
Launch vehicle
SOYUZ-2-1B
Launch site
Plesetsk Missile And Space Complex (PKMTR)
Object type
Payload
Rocket body
Debris
Shape & HBR
Box, Unknown HBR
Radar Cross Section
0.035 m², Medium (>0.1 m² and < 1m²)

Expand to show TLE details & history
Last TLE update: 22 hours ago

TLE from 22 hours ago
0 COSMOS 2548
1 47230U 20091D   26172.51444962 -.00000053  00000-0 -45663-3 0  9998
2 47230  82.5010 298.9555 0015242 180.3181 179.7892 12.42927979251590
Epoch: 2026-06-21T12:20Z
TLE epoch observation values (Epoch: 2026-06-21T12:20:48.447Z)
Latitude
0.00004°
Longitude
-155.95998°
Altitude
1,508.916 km
Speed
7.105 km/s
True Right ascension
19h 55m 49s
True Declination
0° 00' 00"
Sunlit
Object was in full shadow at epoch
Visualization orbit readout
Latitude
Unknown
Longitude
Unknown
Altitude
Unknown
Speed
Unknown
Apparent Right ascension
Unknown
Apparent Declination
Unknown
Sunlit
N/A
Visualization observer readout
Local Sidereal Time
21:30:41
Azimuth
Unknown
Elevation
Unknown
Doppler factor
Unknown
Orbital elements
Apogee altitude
1,503.562 km
Perigee altitude
1,479.572 km
Semi-major axis
7,869.704 km
Eccentricity
0.00152
Inclination
82.501°
RAAN
298.9555°
Arg. of periapsis
180.3181°
True anomaly
179.78984°
Mean anomaly
179.7892°
Eccentric anomaly
179.78952°
Mean motion
3.10889 °/min
Orbital period
115.8 mins
BSTAR
-0.00045663
Loading maneuver chart data...
Computing Atmospheric mass density...
Loading historical data...
Loading historical data...
Loading historical data...
Loading historical data...
Loading historical data...
Loading historical data...
Loading historical data...
Other satellites on launch #91 in the year 2020 (2020-12-03 UTC)

Documentation

Showing up to 5 results
|